SHT1455 EGPH-EGLL

Flight info

Callsign SHT1455
Flight time N/A
Altitude 19000
Route GOSAM P600 FENIK L612 NAVSO DCT AKOMU DCT VAMEB DCT NUGRA
Aircraft A20N/M-SDE2E3FGHIRWXY/LB1

Departure

Time N/A
Airport Edinburgh Airport (EGPH)

Arrival

Time 2026-05-03 20:29
Airport London Heathrow Airport (EGLL)
Time Latitude Longitude Altitude Speed Heading
2026-05-03 20:15 51.88950 -1.01267 14487 ft 363 kts 143°
2026-05-03 20:15 51.87042 -0.98627 13995 ft 359 kts 141°
2026-05-03 20:15 51.85362 -0.95656 13491 ft 359 kts 130°
2026-05-03 20:15 51.84039 -0.92232 12990 ft 358 kts 120°
2026-05-03 20:16 51.82950 -0.88612 12493 ft 359 kts 119°
2026-05-03 20:16 51.81857 -0.85005 11989 ft 355 kts 120°
2026-05-03 20:16 51.80772 -0.81445 11494 ft 351 kts 120°
2026-05-03 20:16 51.79694 -0.77929 10987 ft 347 kts 120°
2026-05-03 20:17 51.78625 -0.74447 10494 ft 346 kts 120°
2026-05-03 20:17 51.77571 -0.71022 10009 ft 344 kts 120°
2026-05-03 20:17 51.76512 -0.67587 9498 ft 340 kts 119°
2026-05-03 20:17 51.75466 -0.64196 9002 ft 337 kts 119°
2026-05-03 20:18 51.74420 -0.60808 8499 ft 334 kts 119°
2026-05-03 20:18 51.73386 -0.57465 8000 ft 332 kts 119°
2026-05-03 20:18 51.72270 -0.54229 7489 ft 328 kts 126°
2026-05-03 20:18 51.70936 -0.51287 6995 ft 324 kts 129°
2026-05-03 20:19 51.69598 -0.48382 6501 ft 321 kts 129°
2026-05-03 20:19 51.68284 -0.45514 6208 ft 318 kts 129°
2026-05-03 20:19 51.66990 -0.42687 6102 ft 306 kts 129°
2026-05-03 20:19 51.65767 -0.40011 6099 ft 287 kts 129°
2026-05-03 20:20 51.64619 -0.37502 6102 ft 270 kts 129°
2026-05-03 20:20 51.63539 -0.35145 6112 ft 253 kts 129°
2026-05-03 20:20 51.62523 -0.32932 6104 ft 238 kts 130°
2026-05-03 20:20 51.61557 -0.30835 6116 ft 235 kts 130°
2026-05-03 20:21 51.60575 -0.28714 6112 ft 235 kts 130°
2026-05-03 20:21 51.59602 -0.26608 6112 ft 234 kts 130°
2026-05-03 20:21 51.58632 -0.24510 6103 ft 233 kts 130°
2026-05-03 20:21 51.57681 -0.22451 5909 ft 232 kts 130°
2026-05-03 20:22 51.56705 -0.20343 5560 ft 232 kts 130°
2026-05-03 20:22 51.55747 -0.18272 5200 ft 231 kts 130°
2026-05-03 20:22 51.54789 -0.16201 4850 ft 230 kts 130°
2026-05-03 20:22 51.53861 -0.14197 4507 ft 229 kts 129°
2026-05-03 20:23 51.52775 -0.12396 4139 ft 223 kts 155°
2026-05-03 20:23 51.51294 -0.11868 3760 ft 219 kts 181°
2026-05-03 20:23 51.49757 -0.12028 3420 ft 217 kts 187°
2026-05-03 20:23 51.48319 -0.12287 3317 ft 205 kts 187°
2026-05-03 20:24 51.47030 -0.12982 3206 ft 193 kts 221°
2026-05-03 20:24 51.46466 -0.14816 3108 ft 186 kts 269°
2026-05-03 20:24 51.46754 -0.16876 3044 ft 192 kts 285°
2026-05-03 20:24 51.47159 -0.18864 2953 ft 187 kts 284°
2026-05-03 20:25 51.47532 -0.20806 2785 ft 179 kts 281°
2026-05-03 20:25 51.47755 -0.22722 2566 ft 171 kts 273°
2026-05-03 20:25 51.47829 -0.24578 2361 ft 162 kts 268°
2026-05-03 20:25 51.47829 -0.26361 2160 ft 163 kts 265°
2026-05-03 20:26 51.47824 -0.28133 1941 ft 153 kts 266°
2026-05-03 20:26 51.47818 -0.29767 1748 ft 140 kts 266°
2026-05-03 20:26 51.47811 -0.31305 1574 ft 140 kts 265°
2026-05-03 20:26 51.47806 -0.32852 1384 ft 138 kts 266°
2026-05-03 20:27 51.47799 -0.34384 1205 ft 138 kts 266°
2026-05-03 20:27 51.47794 -0.35919 1022 ft 137 kts 266°
2026-05-03 20:27 51.47797 -0.37448 831 ft 137 kts 266°
2026-05-03 20:27 51.47794 -0.38983 648 ft 137 kts 266°
2026-05-03 20:28 51.47782 -0.40513 449 ft 137 kts 266°
2026-05-03 20:28 51.47774 -0.42029 290 ft 136 kts 268°
2026-05-03 20:28 51.47769 -0.43550 139 ft 137 kts 268°
2026-05-03 20:28 51.47765 -0.45018 89 ft 119 kts 269°
2026-05-03 20:29 51.47757 -0.45853 86 ft 32 kts 270°
2026-05-03 20:29 51.47759 -0.46138 88 ft 26 kts 269°
2026-05-03 20:29 51.47754 -0.46434 90 ft 27 kts 265°
2026-05-03 20:29 51.47703 -0.46721 90 ft 27 kts 249°
2026-05-03 20:30 51.47634 -0.46873 91 ft 8 kts 210°
2026-05-03 20:30 51.47630 -0.46876 91 ft 0 kts 206°
2026-05-03 20:31 51.47617 -0.46887 87 ft 4 kts 206°
2026-05-03 20:31 51.47587 -0.46933 89 ft 7 kts 246°
2026-05-03 20:32 51.47582 -0.47027 90 ft 10 kts 268°
2026-05-03 20:32 51.47579 -0.47157 87 ft 13 kts 268°
2026-05-03 20:32 51.47582 -0.47320 91 ft 16 kts 272°
2026-05-03 20:32 51.47583 -0.47513 90 ft 18 kts 267°
2026-05-03 20:33 51.47582 -0.47727 91 ft 20 kts 270°
2026-05-03 20:33 51.47578 -0.47944 90 ft 20 kts 268°
2026-05-03 20:33 51.47579 -0.48171 89 ft 15 kts 271°
2026-05-03 20:33 51.47578 -0.48336 89 ft 16 kts 268°
2026-05-03 20:34 51.47556 -0.48478 92 ft 7 kts 199°
2026-05-03 20:34 51.47504 -0.48488 86 ft 8 kts 212°
2026-05-03 20:34 51.47486 -0.48581 87 ft 10 kts 268°
2026-05-03 20:34 51.47485 -0.48715 89 ft 13 kts 269°
2026-05-03 20:35 51.47484 -0.48861 89 ft 13 kts 271°
2026-05-03 20:35 51.47486 -0.48941 88 ft 0 kts 235°
2026-05-03 20:35 51.47484 -0.48941 88 ft 0 kts 218°
2026-05-03 20:35 51.47482 -0.48941 88 ft 1 kts 207°
2026-05-03 20:36 51.47464 -0.48952 89 ft 4 kts 192°
2026-05-03 20:36 51.47429 -0.48954 86 ft 1 kts 185°
2026-05-03 20:36 51.47418 -0.48955 90 ft 3 kts 182°
2026-05-03 20:36 51.47416 -0.48955 90 ft 0 kts 181°